STARLINK-36178

Last updated on Fri Dec 19 2025 00:02:09 GMT+0000 (Coordinated Universal Time)

1 67025U 25293Y 25351.83335648 -.01191407 44846-3 -24887-2 0 9992 2 67025 69.9927 308.9885 0004068 266.2434 151.9127 15.98843512 2385
UTC large
Height (km)
Speed (km/s)
/
Latitude / Longitude
Inclination (degrees)
Orbital Period (minutes)
Azimuth
Elevation
Range (km)
Doppler Factor

Next 0 passes for location: London (51.5072 / 0.1276)

Sorry there are no passes over London.